Temp
-1 -2 -2 -2 -1 -2 -2 -2 -2 -2 -2 -1 -1 -1 -0 -0 0 0 0 0 1 1 1 1 2 2 2
-2 -2 -2 -2 -2 -3 -3 -3 -3 -3 -3 -2 -2 -2 -1 -1 -1 -1 -1 -0 -1 -0 0 1 1 1 2
-2 -2 -2 -3 -3 -3 -3 -3 -3 -3 -3 -3 -3 -2 -2 -2 -2 -1 -1 -1 -1 -1 -1 -1 -0 0 1
-2 -3 -3 -3 -3 -3 -3 -3 -3 -4 -4 -4 -3 -3 -3 -3 -3 -2 -2 -2 -2 -2 -1 -2 -1 -1 0
-3 -3 -3 -3 -3 -3 -4 -4 -4 -4 -4 -4 -3 -4 -4 -4 -4 -3 -3 -3 -3 -2 -2 -2 -1 -1 -1
-3 -3 -3 -3 -4 -4 -4 -4 -4 -4 -3 -4 -4 -4 -4 -4 -4 -4 -3 -3 -3 -2 -2 -2 -1 -1 -1
-3 -4 -4 -4 -5 -5 -4 -4 -4 -4 -4 -4 -4 -4 -4 -4 -4 -4 -4 -3 -3 -2 -2 -2 -2 -1 -1
-4 -4 -5 -4 -4 -4 -5 -5 -5 -5 -4 -4 -4 -4 -5 -5 -4 -4 -4 -3 -3 -2 -2 -2 -2 -2 -1
-4 -4 -5 -5 -5 -6 -5 -5 -5 -5 -5 -5 -4 -5 -5 -5 -4 -4 -3 -3 -3 -3 -2 -2 -1 -1 -1
-5 -6 -6 -6 -6 -6 -7 -6 -6 -5 -4 -5 -5 -5 -4 -3 -3 -4 -4 -4 -3 -3 -3 -2 -2 -2 -2
-6 -6 -6 -6 -6 -7 -7 -8 -7 -7 -6 -6 -6 -6 -5 -4 -4 -4 -4 -4 -4 -4 -3 -3 -3 -3 -2
-7 -7 -7 -7 -8 -8 -8 -8 -8 -8 -8 -8 -7 -6 -6 -4 -3 -3 -3 -3 -3 -3 -3 -3 -3 -2 -2
-7 -7 -8 -8 -9 -8 -8 -8 -8 -8 -7 -7 -7 -6 -6 -4 -3 -3 -2 -2 -2 -3 -2 -2 -2 -3 -3
-8 -8 -8 -8 -8 -8 -8 -8 -8 -7 -6 -6 -6 -5 -4 -4 -4 -3 -3 -2 -2 -2 -2 -1 -1 -1 -2
-8 -8 -8 -8 -8 -8 -8 -8 -8 -7 -6 -5 -5 -5 -4 -4 -3 -2 -2 -2 -2 -2 -1 -1 -1 -1 -1
-9 -9 -9 -9 -8 -8 -8 -8 -7 -7 -6 -5 -4 -4 -3 -1 -0 -2 -2 -2 -2 -1 -1 -1 0 0 1
-9 -9 -9 -8 -8 -8 -8 -8 -7 -6 -5 -4 -5 -4 -3 -2 -1 -1 -2 -2 -2 -1 -1 -1 -1 -0 1
Height
748 744 740 735 731 727 723 718 711 705 700 694 688 683 677 672 667 663 660 657 653 650 647 645 642 641 641
741 736 732 728 723 718 714 710 703 697 691 684 679 673 667 662 657 653 649 645 642 638 635 633 631 629 628
734 730 725 721 715 710 706 700 695 689 680 676 670 663 658 652 646 641 636 632 630 627 624 622 620 618 616
732 726 721 715 710 702 695 691 686 681 670 666 659 653 647 641 635 629 625 621 618 614 612 610 608 606 605
727 722 715 709 704 698 690 682 675 673 660 655 649 641 634 628 622 617 613 609 605 602 599 597 595 594 593
723 715 710 705 699 692 685 677 662 663 655 643 641 629 623 617 611 606 600 595 591 588 585 583 581 580 579
718 712 706 700 693 686 679 672 662 653 650 632 630 620 613 605 598 593 587 582 577 573 570 568 566 565 564
714 706 700 694 689 682 674 665 655 647 644 629 620 612 603 594 586 580 575 570 565 560 556 553 551 550 549
706 700 694 687 682 676 667 660 648 639 633 626 613 605 595 579 572 568 564 558 552 547 543 539 536 535 532
698 691 686 679 675 672 665 657 649 635 625 622 611 605 586 571 566 560 551 546 541 535 530 526 523 520 516
691 684 679 674 668 664 659 654 645 636 622 620 608 602 597 577 557 551 546 536 529 522 516 512 508 505 501
687 680 674 668 661 655 649 643 638 630 617 613 605 598 588 574 560 544 537 529 522 513 505 497 492 488 485
683 676 670 663 655 648 641 635 627 619 611 604 599 589 582 570 557 542 533 519 513 504 493 485 477 471 466
679 672 664 657 650 644 636 628 620 607 603 597 591 583 572 562 553 538 529 521 505 494 482 470 460 453 447
674 667 659 653 645 639 633 625 618 606 595 588 583 576 566 557 545 534 524 514 502 487 473 459 446 436 427
670 664 656 650 642 635 629 622 614 604 595 586 577 566 556 546 539 530 523 512 497 483 470 458 442 430 421
666 658 652 645 640 632 624 617 609 602 593 585 577 570 560 549 535 529 522 510 496 481 469 458 449 436 426
Wind_Speed
32 33 33 32 32 30 28 28 32 37 40 42 43 42 42 43 45 45 46 46 47 46 46 45 44 43 42
35 33 33 33 32 29 31 33 33 34 36 37 39 41 42 41 42 44 45 46 44 45 45 45 44 44 44
34 35 33 27 32 33 31 34 31 32 37 36 36 38 39 41 42 43 43 43 43 44 44 44 44 44 44
29 23 29 32 31 30 29 30 30 31 38 36 36 37 39 40 41 42 41 40 40 41 41 41 41 42 43
23 26 28 28 27 30 30 33 33 31 34 32 31 36 37 38 38 38 37 36 38 39 39 39 40 40 41
26 24 29 28 31 30 29 28 15 28 25 38 32 35 34 35 36 37 39 40 41 41 40 40 41 41 42
29 29 30 31 30 30 32 29 29 35 32 34 34 34 35 36 38 39 40 39 39 40 40 41 42 43 43
29 30 31 30 34 31 32 34 33 33 28 15 33 32 35 36 40 38 36 35 35 36 37 38 39 41 43
27 28 34 31 27 28 26 23 16 27 31 24 25 30 35 39 33 25 30 34 36 36 37 37 39 40 43
28 27 23 25 24 21 24 22 20 12 19 18 28 23 8 18 21 35 30 31 32 34 35 37 38 38 36
25 25 25 24 24 23 24 24 24 23 37 29 22 27 16 19 31 28 32 32 31 33 32 32 34 37 36
23 24 25 26 27 30 31 30 29 33 41 36 25 26 24 16 15 26 34 34 28 29 31 33 34 36 38
22 25 25 29 31 29 30 29 29 30 30 29 29 31 27 22 15 29 27 26 33 28 34 33 33 32 30
23 27 27 27 26 26 27 28 27 29 23 24 26 28 27 28 24 25 28 11 36 35 35 35 32 32 35
23 25 26 25 28 26 25 26 21 22 27 30 26 26 26 28 22 25 24 28 31 36 34 28 29 27 29
25 24 24 25 25 27 24 21 20 23 24 28 28 26 25 17 13 17 22 25 34 35 31 19 17 28 16
24 26 25 24 25 23 23 21 21 21 23 24 21 15 11 12 21 21 18 28 30 31 31 26 11 24 15
Wind_Direction
300 303 304 302 304 304 300 295 292 294 295 293 292 292 290 287 286 284 283 281 279 277 274 271 269 267 266
299 300 301 307 305 306 303 298 296 295 294 292 294 293 290 288 286 284 283 280 278 278 277 275 273 271 268
291 297 303 308 305 305 304 301 299 298 294 294 293 290 290 289 287 286 284 282 279 277 276 274 270 268 266
288 300 306 309 305 306 304 302 301 301 294 292 291 290 289 288 287 285 283 282 280 276 274 271 269 267 264
308 307 304 309 307 306 300 304 303 302 294 293 295 292 289 289 286 285 283 280 277 274 271 269 266 263 261
305 300 303 304 303 301 301 307 304 311 302 296 297 292 291 288 287 287 285 282 279 276 273 269 266 263 260
300 297 297 298 298 304 303 300 298 300 302 294 298 293 293 291 290 288 286 283 280 276 272 268 264 261 258
295 293 293 301 304 301 301 297 296 297 300 289 297 293 297 293 292 288 287 286 282 277 272 268 265 262 258
298 298 300 301 302 305 301 304 300 302 306 293 299 303 300 293 289 288 293 289 283 279 275 270 266 262 258
308 307 306 307 306 303 299 295 298 305 307 308 307 316 310 295 297 300 295 292 289 284 279 273 268 264 257
311 310 312 311 310 308 302 292 292 285 290 304 300 300 288 296 303 301 297 295 294 290 286 279 270 261 257
311 308 310 308 308 307 305 298 290 282 292 293 284 289 289 291 293 299 302 299 293 288 284 280 277 269 259
308 305 305 304 305 307 308 306 301 296 298 298 285 287 283 283 287 294 300 306 302 293 292 282 273 266 260
306 303 305 308 307 310 309 311 310 308 311 305 300 292 292 290 289 290 295 298 304 302 303 295 285 266 254
309 308 307 310 309 313 309 309 305 306 312 317 316 308 294 284 289 289 297 305 310 312 315 311 306 291 268
307 304 303 306 307 310 308 304 303 307 310 314 323 327 330 324 308 288 304 313 320 325 329 327 320 336 355
303 302 303 304 309 305 306 306 306 307 308 314 316 319 324 321 310 320 313 322 328 335 343 338 318 332 17